Time,TemperatureF,DewpointF,PressureIn,WindDirection,WindDirectionDegrees,WindSpeedMPH,WindSpeedGustMPH,Humidity,HourlyPrecipIn,Conditions,Clouds,dailyrainin,SolarRadiationWatts/m^2,SoftwareType,DateUTC
2013-08-03 00:04:00,52.7,51.0,29.93,North,-999,0.0,0.0,94,0.00,,,0.00,0,weatherlink.com 1.10,2013-08-03 07:04:00,
2013-08-03 00:19:00,52.8,51.0,29.93,North,-999,0.0,0.0,94,0.00,,,0.00,0,weatherlink.com 1.10,2013-08-03 07:19:00,
2013-08-03 00:34:00,52.6,51.0,29.93,North,-999,0.0,0.0,94,0.00,,,0.00,0,weatherlink.com 1.10,2013-08-03 07:34:00,
2013-08-03 00:49:00,52.7,51.0,29.93,North,-999,0.0,0.0,94,0.00,,,0.00,0,weatherlink.com 1.10,2013-08-03 07:49:00,
2013-08-03 01:04:00,52.6,51.0,29.93,North,-999,0.0,0.0,94,0.00,,,0.00,0,weatherlink.com 1.10,2013-08-03 08:04:00,
2013-08-03 01:19:00,52.5,51.0,29.93,North,-999,0.0,0.0,94,0.00,,,0.00,0,weatherlink.com 1.10,2013-08-03 08:19:00,
2013-08-03 01:34:00,52.4,51.0,29.93,North,-999,0.0,0.0,94,0.00,,,0.00,0,weatherlink.com 1.10,2013-08-03 08:34:00,
2013-08-03 01:49:00,52.3,51.0,29.92,North,-999,0.0,0.0,94,0.00,,,0.00,0,weatherlink.com 1.10,2013-08-03 08:49:00,
2013-08-03 02:04:00,52.4,51.0,29.92,North,360,0.0,0.0,95,0.00,,,0.00,0,weatherlink.com 1.10,2013-08-03 09:04:00,
2013-08-03 02:19:00,52.3,51.0,29.93,North,-999,0.0,0.0,95,0.00,,,0.00,0,weatherlink.com 1.10,2013-08-03 09:19:00,
2013-08-03 02:34:00,52.3,51.0,29.92,North,-999,0.0,0.0,95,0.00,,,0.00,0,weatherlink.com 1.10,2013-08-03 09:34:00,
2013-08-03 02:49:00,52.2,51.0,29.93,North,360,0.0,0.0,95,0.00,,,0.00,0,weatherlink.com 1.10,2013-08-03 09:49:00,
2013-08-03 03:04:00,52.1,51.0,29.92,North,-999,0.0,0.0,95,0.00,,,0.00,0,weatherlink.com 1.10,2013-08-03 10:04:00,
2013-08-03 03:19:00,52.2,51.0,29.92,North,-999,0.0,0.0,95,0.00,,,0.00,0,weatherlink.com 1.10,2013-08-03 10:19:00,
2013-08-03 03:34:00,52.0,51.0,29.92,North,-999,0.0,0.0,95,0.00,,,0.00,0,weatherlink.com 1.10,2013-08-03 10:34:00,
2013-08-03 03:49:00,51.8,51.0,29.92,North,-999,0.0,0.0,95,0.00,,,0.00,0,weatherlink.com 1.10,2013-08-03 10:49:00,
2013-08-03 04:04:00,51.9,51.0,29.92,North,360,0.0,0.0,95,0.00,,,0.00,0,weatherlink.com 1.10,2013-08-03 11:04:00,
2013-08-03 04:19:00,51.7,50.0,29.92,North,360,0.0,0.0,95,0.00,,,0.00,0,weatherlink.com 1.10,2013-08-03 11:19:00,
2013-08-03 04:34:00,51.7,51.0,29.93,North,360,0.0,0.0,96,0.00,,,0.00,0,weatherlink.com 1.10,2013-08-03 11:34:00,
2013-08-03 04:49:00,51.5,50.0,29.92,North,-999,0.0,0.0,96,0.00,,,0.00,0,weatherlink.com 1.10,2013-08-03 11:49:00,
2013-08-03 05:04:00,51.5,50.0,29.93,North,360,0.0,0.0,96,0.00,,,0.00,0,weatherlink.com 1.10,2013-08-03 12:04:00,
2013-08-03 05:19:00,51.4,50.0,29.93,North,-999,0.0,0.0,96,0.00,,,0.00,0,weatherlink.com 1.10,2013-08-03 12:19:00,
2013-08-03 05:34:00,51.5,50.0,29.93,North,-999,0.0,0.0,96,0.00,,,0.00,0,weatherlink.com 1.10,2013-08-03 12:34:00,
2013-08-03 05:49:00,51.6,51.0,29.93,North,-999,0.0,0.0,96,0.00,,,0.00,0,weatherlink.com 1.10,2013-08-03 12:49:00,
2013-08-03 06:04:00,51.6,51.0,29.93,North,-999,0.0,0.0,96,0.00,,,0.00,0,weatherlink.com 1.10,2013-08-03 13:04:00,
2013-08-03 06:19:00,51.6,51.0,29.94,North,360,0.0,0.0,96,0.00,,,0.00,0,weatherlink.com 1.10,2013-08-03 13:19:00,
2013-08-03 06:34:00,51.5,50.0,29.94,North,360,0.0,0.0,96,0.00,,,0.00,0,weatherlink.com 1.10,2013-08-03 13:34:00,
2013-08-03 06:49:00,51.5,50.0,29.94,North,360,0.0,0.0,96,0.00,,,0.00,7,weatherlink.com 1.10,2013-08-03 13:49:00,
2013-08-03 07:04:00,51.5,50.0,29.95,North,360,0.0,0.0,96,0.00,,,0.00,12,weatherlink.com 1.10,2013-08-03 14:04:00,
2013-08-03 07:19:00,51.5,50.0,29.95,North,360,0.0,0.0,96,0.00,,,0.00,23,weatherlink.com 1.10,2013-08-03 14:19:00,
2013-08-03 07:34:00,51.5,50.0,29.95,North,-999,0.0,0.0,96,0.00,,,0.00,21,weatherlink.com 1.10,2013-08-03 14:34:00,
2013-08-03 07:49:00,51.7,51.0,29.96,North,-999,0.0,0.0,96,0.00,,,0.00,32,weatherlink.com 1.10,2013-08-03 14:49:00,
2013-08-03 08:04:00,51.7,51.0,29.96,North,-999,0.0,0.0,96,0.00,,,0.00,39,weatherlink.com 1.10,2013-08-03 15:04:00,
2013-08-03 08:19:00,51.8,51.0,29.96,North,-999,0.0,0.0,96,0.00,,,0.00,44,weatherlink.com 1.10,2013-08-03 15:19:00,
2013-08-03 08:34:00,52.1,51.0,29.97,North,-999,0.0,0.0,96,0.00,,,0.00,56,weatherlink.com 1.10,2013-08-03 15:34:00,
2013-08-03 08:49:00,52.1,51.0,29.97,North,-999,0.0,0.0,96,0.00,,,0.00,74,weatherlink.com 1.10,2013-08-03 15:49:00,
2013-08-03 09:04:00,52.3,51.0,29.97,North,-999,0.0,0.0,96,0.00,,,0.00,84,weatherlink.com 1.10,2013-08-03 16:04:00,
2013-08-03 09:19:00,52.5,52.0,29.97,North,-999,0.0,0.0,97,0.00,,,0.00,102,weatherlink.com 1.10,2013-08-03 16:19:00,
2013-08-03 09:34:00,52.7,52.0,29.97,North,-999,0.0,0.0,96,0.00,,,0.00,105,weatherlink.com 1.10,2013-08-03 16:34:00,
2013-08-03 09:49:00,52.9,52.0,29.97,North,360,0.0,0.0,96,0.00,,,0.00,128,weatherlink.com 1.10,2013-08-03 16:49:00,
2013-08-03 10:04:00,53.2,52.0,29.97,North,360,0.0,0.0,96,0.00,,,0.00,156,weatherlink.com 1.10,2013-08-03 17:04:00,
2013-08-03 10:20:00,53.7,53.0,29.97,North,-999,0.0,0.0,96,0.00,,,0.00,162,weatherlink.com 1.10,2013-08-03 17:20:00,
2013-08-03 10:34:00,54.0,53.0,29.97,North,360,0.0,0.0,95,0.00,,,0.00,165,weatherlink.com 1.10,2013-08-03 17:34:00,
2013-08-03 10:50:00,54.7,53.0,29.97,North,-999,0.0,0.0,94,0.00,,,0.00,216,weatherlink.com 1.10,2013-08-03 17:50:00,
2013-08-03 11:05:00,55.6,53.0,29.97,North,-999,0.0,0.0,92,0.00,,,0.00,243,weatherlink.com 1.10,2013-08-03 18:05:00,
2013-08-03 11:20:00,56.1,53.0,29.97,North,-999,0.0,0.0,90,0.00,,,0.00,302,weatherlink.com 1.10,2013-08-03 18:20:00,
2013-08-03 11:35:00,56.9,54.0,29.97,North,-999,0.0,0.0,89,0.00,,,0.00,304,weatherlink.com 1.10,2013-08-03 18:35:00,
2013-08-03 11:50:00,57.7,54.0,29.97,North,-999,0.0,0.0,88,0.00,,,0.00,264,weatherlink.com 1.10,2013-08-03 18:50:00,
2013-08-03 12:05:00,57.9,54.0,29.97,North,-999,0.0,0.0,86,0.00,,,0.00,258,weatherlink.com 1.10,2013-08-03 19:05:00,
2013-08-03 12:20:00,58.0,54.0,29.97,North,-999,0.0,0.0,86,0.00,,,0.00,287,weatherlink.com 1.10,2013-08-03 19:20:00,
2013-08-03 12:35:00,58.4,54.0,29.97,North,-999,0.0,0.0,85,0.00,,,0.00,346,weatherlink.com 1.10,2013-08-03 19:35:00,
2013-08-03 12:50:00,59.1,54.0,29.97,North,-999,0.0,0.0,84,0.00,,,0.00,381,weatherlink.com 1.10,2013-08-03 19:50:00,
2013-08-03 13:05:00,59.8,55.0,29.97,North,-999,0.0,0.0,83,0.00,,,0.00,355,weatherlink.com 1.10,2013-08-03 20:05:00,
2013-08-03 13:20:00,60.0,54.0,29.97,North,-999,0.0,0.0,81,0.00,,,0.00,387,weatherlink.com 1.10,2013-08-03 20:20:00,
2013-08-03 13:35:00,59.7,54.0,29.97,North,-999,0.0,0.0,81,0.00,,,0.00,612,weatherlink.com 1.10,2013-08-03 20:35:00,
2013-08-03 13:50:00,60.0,55.0,29.97,North,-999,0.0,0.0,82,0.00,,,0.00,496,weatherlink.com 1.10,2013-08-03 20:50:00,
2013-08-03 14:05:00,60.4,54.0,29.96,North,-999,0.0,0.0,80,0.00,,,0.00,385,weatherlink.com 1.10,2013-08-03 21:05:00,
2013-08-03 14:20:00,60.1,54.0,29.96,North,-999,0.0,0.0,81,0.00,,,0.00,497,weatherlink.com 1.10,2013-08-03 21:20:00,
2013-08-03 14:35:00,60.4,54.0,29.96,North,-999,0.0,0.0,80,0.00,,,0.00,401,weatherlink.com 1.10,2013-08-03 21:35:00,
2013-08-03 15:35:00,59.0,54.0,29.95,North,360,0.0,0.0,82,0.00,,,0.00,288,weatherlink.com 1.10,2013-08-03 22:35:00,
2013-08-03 15:51:00,59.0,54.0,29.95,North,-999,0.0,0.0,83,0.00,,,0.00,246,weatherlink.com 1.10,2013-08-03 22:51:00,
2013-08-03 16:06:00,59.3,54.0,29.95,North,360,0.0,0.0,83,0.00,,,0.00,227,weatherlink.com 1.10,2013-08-03 23:06:00,
2013-08-03 16:21:00,58.2,53.0,29.95,North,-999,0.0,0.0,84,0.00,,,0.00,225,weatherlink.com 1.10,2013-08-03 23:21:00,
2013-08-03 16:36:00,57.9,54.0,29.94,North,-999,0.0,0.0,85,0.00,,,0.00,207,weatherlink.com 1.10,2013-08-03 23:36:00,
2013-08-03 16:51:00,57.7,54.0,29.94,North,-999,0.0,0.0,86,0.00,,,0.00,178,weatherlink.com 1.10,2013-08-03 23:51:00,
2013-08-03 17:21:00,57.1,53.0,29.93,North,-999,0.0,0.0,87,0.00,,,0.00,132,weatherlink.com 1.10,2013-08-04 00:21:00,
2013-08-03 17:36:00,56.6,53.0,29.93,North,360,0.0,0.0,88,0.00,,,0.00,120,weatherlink.com 1.10,2013-08-04 00:36:00,
2013-08-03 17:51:00,56.1,53.0,29.93,North,360,0.0,0.0,89,0.00,,,0.00,98,weatherlink.com 1.10,2013-08-04 00:51:00,
2013-08-03 18:06:00,55.7,53.0,29.93,North,-999,0.0,0.0,89,0.00,,,0.00,77,weatherlink.com 1.10,2013-08-04 01:06:00,
2013-08-03 18:21:00,55.0,52.0,29.93,North,-999,0.0,0.0,89,0.00,,,0.00,58,weatherlink.com 1.10,2013-08-04 01:21:00,
2013-08-03 18:36:00,54.6,52.0,29.93,North,-999,0.0,0.0,90,0.00,,,0.00,46,weatherlink.com 1.10,2013-08-04 01:36:00,
2013-08-03 19:36:00,53.1,51.0,29.92,North,360,0.0,0.0,92,0.00,,,0.00,12,weatherlink.com 1.10,2013-08-04 02:36:00,
2013-08-03 19:51:00,52.8,51.0,29.92,North,360,0.0,0.0,92,0.00,,,0.00,5,weatherlink.com 1.10,2013-08-04 02:51:00,
2013-08-03 20:21:00,52.4,51.0,29.93,North,360,0.0,0.0,93,0.00,,,0.00,0,weatherlink.com 1.10,2013-08-04 03:21:00,
2013-08-03 20:36:00,52.3,50.0,29.93,North,-999,0.0,0.0,93,0.00,,,0.00,0,weatherlink.com 1.10,2013-08-04 03:36:00,
2013-08-03 20:51:00,52.4,51.0,29.94,North,-999,0.0,0.0,93,0.00,,,0.00,0,weatherlink.com 1.10,2013-08-04 03:51:00,
2013-08-03 21:06:00,52.2,50.0,29.94,North,-999,0.0,0.0,93,0.00,,,0.00,0,weatherlink.com 1.10,2013-08-04 04:06:00,
2013-08-03 21:21:00,51.7,50.0,29.94,North,-999,0.0,0.0,93,0.00,,,0.00,0,weatherlink.com 1.10,2013-08-04 04:21:00,
2013-08-03 21:36:00,51.4,50.0,29.95,North,360,0.0,0.0,94,0.00,,,0.00,0,weatherlink.com 1.10,2013-08-04 04:36:00,
2013-08-03 21:51:00,51.3,50.0,29.95,North,360,0.0,0.0,94,0.00,,,0.00,0,weatherlink.com 1.10,2013-08-04 04:51:00,
2013-08-03 22:06:00,51.1,50.0,29.96,North,360,0.0,0.0,94,0.00,,,0.00,0,weatherlink.com 1.10,2013-08-04 05:06:00,
2013-08-03 22:21:00,51.3,50.0,29.96,North,-999,0.0,0.0,95,0.00,,,0.00,0,weatherlink.com 1.10,2013-08-04 05:21:00,
2013-08-03 22:36:00,51.5,50.0,29.96,North,-999,0.0,0.0,95,0.00,,,0.00,0,weatherlink.com 1.10,2013-08-04 05:36:00,
2013-08-03 22:51:00,51.6,50.0,29.96,North,-999,0.0,0.0,95,0.00,,,0.00,0,weatherlink.com 1.10,2013-08-04 05:51:00,
2013-08-03 23:06:00,51.5,50.0,29.96,North,-999,0.0,0.0,95,0.00,,,0.00,0,weatherlink.com 1.10,2013-08-04 06:06:00,
2013-08-03 23:36:00,51.5,50.0,29.96,North,360,0.0,0.0,95,0.00,,,0.00,0,weatherlink.com 1.10,2013-08-04 06:36:00,
2013-08-03 23:51:00,51.6,51.0,29.96,North,360,0.0,0.0,96,0.00,,,0.00,0,weatherlink.com 1.10,2013-08-04 06:51:00,